Terra

operational
NORAD ID: 25994 Int'l Des: 1999-068 Owner: GSFC Country: US
LEOCIRCULARRETROGRADESSO

About Terra

Description loading...

Live Position

Loading 3D Globe...

Upcoming Passes

Altitude History

Altitude vs Time

uPlot chart will show altitude changes over time

Two-Line Element Set

1 25994U 99068A 26062.13367142 .00000513 00000-0 11359-3 0 9995
2 25994 97.9607 115.8185 0002257 167.8691 217.2698 14.61006268394120
Epoch: Mar 3, 2026 • Age: 31 hours

Current Status

Altitude 703.0 km
Velocity 7.51 km/s
Sub-Earth Point 82.07°N, 115.9°E
Launch Date Dec 18, 1999
Age 26.2 years
Type other

Technical Details

Classification Payload
Mass 5190.00 kg
Dry Mass 4854.00 kg
Total Mass 5190.00 kg
Length 6.80 m
Diameter 3.50 m
Span 10.00 m
Shape Box + Pan
Manufacturer LMVF
Bus Type EOS
Phase Status In Orbit
Owner/State GSFC/US

Large Constellations

Loading constellations...